Alexandria, LA

1:00 AM CST on February 14, 2016 (GMT -0600)
Alexandria International

Weather History for KAEX - January, 2009

Change the Weather History Date:

Saturday, January 17, 2009

  Actual Average Record
Temperature  
Mean Temperature 50 °F 49 °F  
Max Temperature 61 °F 59 °F 79 °F (1935)
Min Temperature 38 °F 38 °F 14 °F (1982)
Degree Days  
Heating Degree Days 15 16  
Month to date heating degree days 242 272  
Since 1 July heating degree days 1007 1061  
Moisture  
Dew Point 38 °F    
Average Humidity 67    
Maximum Humidity 90    
Minimum Humidity 53    
Precipitation  
Precipitation 0.00 in 0.17 in 3.10 in (1925)
Month to date precipitation 0.95 2.59  
Year to date precipitation 0.95 2.59  
Snow  
Snow 0.00 in - T in (1948)
Month to date snowfall 0.0  
Since 1 July snowfall 0.0  
Snow Depth 0.00 in    
Sea Level Pressure  
Sea Level Pressure 30.35 in    
Wind  
Wind Speed 6 mph (SSE)    
Max Wind Speed 15 mph    
Max Gust Speed 22 mph    
Visibility 10 miles    
Events      
T = Trace of Precipitation, MM = Missing Value Source: NWS Daily Summary

Daily Weather History Graph

Daily Weather History Graph

Search for Another Location

Airport or City:

Trip Planner

Search our weather history database for the weather conditions in past years. The results will help you decide how hot, cold, wet, or windy it might be!

Date:

Astronomy

Jan. 17, 2009 Rise Set
Actual Time 7:09 AM CST 5:31 PM CST
Civil Twilight 6:43 AM CST 5:58 PM CST
Nautical Twilight 6:13 AM CST 6:27 PM CST
Astronomical Twilight 5:44 AM CST 6:56 PM CST
Moon No Moon Rise 11:04 AM CST (1/17)
Length of Visible Light 11h 15m
Length of Day
10h 22m
Waning Gibbous, 54% of the Moon is Illuminated
Jan 17
Waning Gibbous
Jan 17
Last Quarter
Jan 26
New
Feb 2
First Quarter
Feb 9
Full

Hourly Weather History & Observations

Time (CST) Temp. Windchill Dew Point Humidity Pressure Visibility Wind Dir Wind Speed Gust Speed Precip Events Conditions
12:53 AM 37.9 °F 35.5 °F 24.1 °F 57% 30.52 in 10.0 mi SSE 3.5 mph - N/A   Overcast
1:53 AM 39.0 °F 35.7 °F 24.1 °F 55% 30.51 in 10.0 mi SE 4.6 mph - N/A   Overcast
2:53 AM 39.0 °F 34.0 °F 25.0 °F 57% 30.48 in 10.0 mi SE 6.9 mph - N/A   Overcast
3:53 AM 39.0 °F 34.8 °F 24.1 °F 55% 30.46 in 10.0 mi SE 5.8 mph - N/A   Overcast
4:53 AM 39.9 °F 36.7 °F 24.1 °F 53% 30.45 in 10.0 mi SSE 4.6 mph - N/A   Overcast
5:53 AM 39.9 °F 36.7 °F 26.1 °F 58% 30.45 in 10.0 mi SE 4.6 mph - N/A   Overcast
6:53 AM 39.9 °F 34.5 °F 26.1 °F 58% 30.44 in 10.0 mi SE 8.1 mph - N/A   Overcast
7:53 AM 41.0 °F 37.1 °F 28.0 °F 60% 30.43 in 10.0 mi SE 5.8 mph - N/A   Overcast
8:53 AM 42.1 °F 38.4 °F 28.9 °F 60% 30.44 in 10.0 mi SE 5.8 mph - N/A   Overcast
9:53 AM 44.1 °F 40.1 °F 28.9 °F 55% 30.45 in 10.0 mi SE 6.9 mph - N/A   Overcast
10:53 AM 46.0 °F 43.1 °F 30.9 °F 56% 30.42 in 10.0 mi SSE 5.8 mph - N/A   Overcast
11:53 AM 50.0 °F - 35.1 °F 57% 30.38 in 9.0 mi SSE 4.6 mph - N/A   Overcast
12:53 PM 55.0 °F - 43.0 °F 64% 30.33 in 9.0 mi SSW 5.8 mph - N/A   Overcast
1:53 PM 57.9 °F - 46.0 °F 65% 30.29 in 10.0 mi SSW 8.1 mph - N/A   Overcast
2:53 PM 59.0 °F - 46.9 °F 64% 30.28 in 10.0 mi SSW 9.2 mph - N/A   Overcast
3:53 PM 60.1 °F - 48.9 °F 67% 30.24 in 10.0 mi South 15.0 mph 21.9 mph N/A   Partly Cloudy
4:53 PM 60.1 °F - 48.9 °F 67% 30.24 in 10.0 mi SSE 6.9 mph - N/A   Mostly Cloudy
5:53 PM 57.9 °F - 50.0 °F 75% 30.22 in 10.0 mi South 9.2 mph - N/A   Scattered Clouds
6:53 PM 55.9 °F - 50.0 °F 80% 30.21 in 10.0 mi South 11.5 mph - N/A   Overcast
7:53 PM 55.0 °F - 51.1 °F 86% 30.21 in 10.0 mi South 8.1 mph - N/A   Clear
8:53 PM 55.0 °F - 51.1 °F 86% 30.22 in 10.0 mi South 4.6 mph - N/A   Clear
9:53 PM 54.0 °F - 51.1 °F 90% 30.23 in 10.0 mi South 3.5 mph - N/A   Overcast
10:53 PM 55.0 °F - 51.1 °F 86% 30.22 in 10.0 mi SSW 5.8 mph - N/A   Overcast
11:53 PM 55.0 °F - 52.0 °F 89% 30.20 in 10.0 mi SW 4.6 mph - N/A   Scattered Clouds